TimeMDT,TemperatureF,Dew PointF,Humidity,Sea Level PressureIn,VisibilityMPH,Wind Direction,Wind SpeedMPH,Gust SpeedMPH,PrecipitationIn,Events,Conditions,WindDirDegrees,DateUTC
12:53 AM,28.9,18.0,64,30.25,10.0,Calm,Calm,-,N/A,,Clear,0,2013-03-14 06:53:00
1:53 AM,28.0,18.0,66,30.26,10.0,Calm,Calm,-,N/A,,Clear,0,2013-03-14 07:53:00
2:53 AM,28.9,19.0,67,30.24,10.0,Calm,Calm,-,N/A,,Clear,0,2013-03-14 08:53:00
3:53 AM,24.1,18.0,77,30.26,10.0,Calm,Calm,-,N/A,,Clear,0,2013-03-14 09:53:00
4:53 AM,26.1,19.0,75,30.25,10.0,Calm,Calm,-,N/A,,Clear,0,2013-03-14 10:53:00
5:53 AM,23.0,18.0,81,30.28,10.0,Calm,Calm,-,N/A,,Clear,0,2013-03-14 11:53:00
7:53 AM,21.9,17.1,82,30.35,10.0,Calm,Calm,-,N/A,,Clear,0,2013-03-14 13:53:00
8:53 AM,32.0,21.9,66,30.35,10.0,Calm,Calm,-,N/A,,Clear,0,2013-03-14 14:53:00
9:53 AM,43.0,23.0,45,30.32,10.0,Calm,Calm,-,N/A,,Clear,0,2013-03-14 15:53:00
10:53 AM,52.0,21.9,31,30.28,10.0,Calm,Calm,-,N/A,,Clear,0,2013-03-14 16:53:00
11:53 AM,61.0,19.0,20,30.26,10.0,Calm,Calm,-,N/A,,Clear,0,2013-03-14 17:53:00
12:53 PM,63.0,14.0,15,30.27,10.0,Calm,Calm,-,N/A,,Clear,0,2013-03-14 18:53:00
1:53 PM,66.0,12.0,12,30.23,10.0,Variable,4.6,-,N/A,,Clear,0,2013-03-14 19:53:00
2:53 PM,66.9,10.9,11,30.19,10.0,SW,4.6,-,N/A,,Clear,230,2013-03-14 20:53:00
3:53 PM,69.1,10.9,11,30.17,10.0,Calm,Calm,-,N/A,,Clear,0,2013-03-14 21:53:00
4:53 PM,69.1,12.0,11,30.15,10.0,Calm,Calm,-,N/A,,Clear,0,2013-03-14 22:53:00
5:53 PM,69.1,12.9,11,30.16,10.0,Variable,4.6,-,N/A,,Clear,0,2013-03-14 23:53:00
6:53 PM,64.9,12.9,13,30.18,10.0,Variable,5.8,-,N/A,,Clear,0,2013-03-15 00:53:00
7:53 PM,57.9,12.9,17,30.22,10.0,East,4.6,-,N/A,,Clear,80,2013-03-15 01:53:00
8:53 PM,48.9,14.0,25,30.23,10.0,Variable,3.5,-,N/A,,Clear,0,2013-03-15 02:53:00
9:53 PM,43.0,16.0,34,30.22,10.0,Calm,Calm,-,N/A,,Clear,0,2013-03-15 03:53:00
10:53 PM,39.0,19.0,45,30.20,10.0,Calm,Calm,-,N/A,,Clear,0,2013-03-15 04:53:00
11:53 PM,33.1,18.0,54,30.19,10.0,Calm,Calm,-,N/A,,Clear,0,2013-03-15 05:53:00